Weather History for KEVV - October, 2014

Change the Weather History Date:

Tuesday, October 21, 2014

  Actual Average Record
Temperature  
Mean Temperature 55 °F 56 °F  
Max Temperature 65 °F 68 °F 90 °F (1963)
Min Temperature 45 °F 44 °F 26 °F (1952)
Degree Days  
Heating Degree Days 10 9  
Month to date heating degree days 127 147  
Since 1 July heating degree days 163 194  
Cooling Degree Days 0 1  
Month to date cooling degree days 28 28  
Year to date cooling degree days 1471 1394  
Growing Degree Days 4 (Base 50)    
Moisture  
Dew Point 43 °F    
Average Humidity 70    
Maximum Humidity 93    
Minimum Humidity 46    
Precipitation  
Precipitation 0.00 in 0.11 in 1.10 in (1919)
Month to date precipitation 3.66 2.15  
Year to date precipitation 40.39 36.12  
Snow  
Snow 0.00 in 0.00 in - ()
Month to date snowfall 0.0 0.1  
Since 1 July snowfall 0.0 0.1  
Since 1 September snowfall 0.0 0.1  
Snow Depth 0.00 in    
Sea Level Pressure  
Sea Level Pressure 30.09 in    
Wind  
Wind Speed 6 mph (North)    
Max Wind Speed 15 mph    
Max Gust Speed 19 mph    
Visibility 10 miles    
Events      
T = Trace of Precipitation, MM = Missing Value Source: NWS Daily Summary

Daily Weather History Graph

Daily Weather History Graph

Search for Another Location

Airport or City:

Trip Planner

Search our weather history database for the weather conditions in past years. The results will help you decide how hot, cold, wet, or windy it might be!

Date:

Astronomy

Oct. 21, 2014 Rise Set
Actual Time 7:04 AM CDT 6:04 PM CDT
Civil Twilight 6:37 AM CDT 6:30 PM CDT
Nautical Twilight 6:07 AM CDT 7:01 PM CDT
Astronomical Twilight 5:36 AM CDT 7:32 PM CDT
Moon 4:50 AM CDT (10/21) 4:56 PM CDT (10/21)
Length of Visible Light 11h 53m
Length of Day
10h 59m
Waning Crescent, 5% of the Moon is Illuminated
Oct 21
Waning Crescent
Oct 23
New
Oct 30
First Quarter
Nov 6
Full
Nov 14
Last Quarter

Hourly Weather History & Observations

Time (CDT) Temp. Windchill Dew Point Humidity Pressure Visibility Wind Dir Wind Speed Gust Speed Precip Events Conditions
12:54 AM 55.0 °F - 44.1 °F 67% 29.99 in 10.0 mi NNW 4.6 mph - N/A   Clear
1:54 AM 50.0 °F - 44.1 °F 80% 29.99 in 10.0 mi SW 3.5 mph - N/A   Clear
2:54 AM 46.9 °F - 44.1 °F 90% 30.00 in 10.0 mi WSW 3.5 mph - N/A   Clear
3:54 AM 46.9 °F - 43.0 °F 86% 30.01 in 10.0 mi Calm Calm - N/A   Clear
4:54 AM 46.0 °F 43.9 °F 43.0 °F 89% 30.02 in 10.0 mi SW 4.6 mph - N/A   Clear
5:54 AM 45.0 °F 43.5 °F 42.1 °F 90% 30.04 in 10.0 mi WSW 3.5 mph - N/A   Clear
6:54 AM 45.0 °F - 42.1 °F 90% 30.05 in 10.0 mi Calm Calm - N/A   Clear
7:54 AM 46.9 °F - 44.1 °F 90% 30.07 in 10.0 mi Calm Calm - N/A   Clear
8:54 AM 54.0 °F - 46.9 °F 77% 30.09 in 10.0 mi NE 6.9 mph - N/A   Clear
9:54 AM 57.9 °F - 46.0 °F 65% 30.09 in 10.0 mi NNE 9.2 mph - N/A   Clear
10:54 AM 61.0 °F - 45.0 °F 56% 30.10 in 10.0 mi NE 9.2 mph - N/A   Clear
11:54 AM 63.0 °F - 44.1 °F 50% 30.10 in 10.0 mi NNE 4.6 mph - N/A   Clear
12:54 PM 64.0 °F - 45.0 °F 50% 30.09 in 10.0 mi NNE 11.5 mph - N/A   Partly Cloudy
1:54 PM 62.6 °F - 44.6 °F 52% 30.08 in 10.0 mi North 9.2 mph - N/A   Mostly Cloudy
2:54 PM 63.0 °F - 44.1 °F 50% 30.09 in 10.0 mi North 11.5 mph 18.4 mph N/A   Mostly Cloudy
3:54 PM 63.0 °F - 42.1 °F 46% 30.10 in 10.0 mi NNE 12.7 mph 19.6 mph N/A   Partly Cloudy
4:54 PM 63.0 °F - 42.1 °F 46% 30.11 in 10.0 mi NNE 13.8 mph 17.3 mph N/A   Scattered Clouds
5:54 PM 60.1 °F - 39.9 °F 47% 30.12 in 10.0 mi North 8.1 mph - N/A   Clear
6:54 PM 54.0 °F - 41.0 °F 62% 30.14 in 10.0 mi NNE 5.8 mph - N/A   Clear
7:54 PM 51.1 °F - 39.9 °F 66% 30.15 in 10.0 mi NNE 4.6 mph - N/A   Clear
8:54 PM 51.1 °F - 39.9 °F 66% 30.17 in 10.0 mi North 4.6 mph - N/A   Clear
9:54 PM 48.0 °F - 39.9 °F 74% 30.19 in 10.0 mi North 3.5 mph - N/A   Clear
10:54 PM 48.9 °F - 39.9 °F 71% 30.19 in 10.0 mi NNE 5.8 mph - N/A   Clear
11:54 PM 48.0 °F - 41.0 °F 77% 30.20 in 10.0 mi NNE 5.8 mph - N/A   Clear